| time (UTC) | temp F | wind direction | speed knots | gust knots | rain 1hr in | rain 24hr in | rain mn in | humidity % | barometer mb |
| 20260903103705 | 75 | 153 | 2.6 | 6.1 | 0.00 | 0.10 | 0.00 | 93 | 1014.7 |
| 20260903103205 | 75 | 145 | 3.5 | 6.1 | 0.00 | 0.10 | 0.00 | 93 | 1014.7 |
| 20260903102705 | 75 | 149 | 2.6 | 6.1 | 0.00 | 0.10 | 0.00 | 93 | 1014.7 |
| 20260903102205 | 75 | 153 | 1.7 | 4.3 | 0.00 | 0.10 | 0.00 | 93 | 1014.8 |
| 20260903101705 | 75 | 144 | 1.7 | 2.6 | 0.00 | 0.10 | 0.00 | 93 | 1014.9 |
| 20260903101204 | 75 | 90 | 1.7 | 2.6 | 0.00 | 0.10 | 0.00 | 93 | 1014.9 |
| 20260903100705 | 75 | 99 | 2.6 | 7.0 | 0.00 | 0.10 | 0.00 | 94 | 1015.0 |
| 20260903095205 | 75 | 102 | 3.5 | 6.1 | 0.00 | 0.10 | 0.00 | 93 | 1015.1 |
| 20260903094704 | 75 | 78 | 2.6 | 4.3 | 0.00 | 0.10 | 0.00 | 93 | 1015.2 |
| 20260903094204 | 75 | 70 | 2.6 | 4.3 | 0.00 | 0.10 | 0.00 | 93 | 1015.2 |
| 20260903093704 | 75 | 76 | 2.6 | 4.3 | 0.00 | 0.10 | 0.00 | 93 | 1015.3 |
| 20260903093205 | 75 | 86 | 1.7 | 2.6 | 0.00 | 0.10 | 0.00 | 93 | 1015.2 |
| 20260903092205 | 75 | 65 | 2.6 | 4.3 | 0.00 | 0.10 | 0.00 | 93 | 1015.1 |
| 20260903091705 | 75 | 71 | 3.5 | 4.3 | 0.00 | 0.10 | 0.00 | 93 | 1015.2 |
| 20260903091204 | 75 | 73 | 2.6 | 4.3 | 0.00 | 0.10 | 0.00 | 93 | 1015.2 |
| 20260903090705 | 75 | 73 | 2.6 | 2.6 | 0.00 | 0.10 | 0.00 | 93 | 1015.1 |
| 20260903085705 | 75 | 96 | 3.5 | 5.2 | 0.00 | 0.10 | 0.00 | 93 | 1015.0 |
| 20260903084705 | 75 | 67 | 3.5 | 5.2 | 0.00 | 0.10 | 0.00 | 93 | 1015.0 |
| 20260903084205 | 76 | 63 | 2.6 | 5.2 | 0.00 | 0.10 | 0.00 | 94 | 1015.0 |
| 20260903083704 | 76 | 88 | 2.6 | 4.3 | 0.00 | 0.10 | 0.00 | 94 | 1015.0 |
| 20260903083204 | 76 | 113 | 1.7 | 5.2 | 0.00 | 0.10 | 0.00 | 94 | 1015.0 |
| 20260903082704 | 76 | 117 | 2.6 | 5.2 | 0.00 | 0.10 | 0.00 | 94 | 1015.1 |
| 20260903082204 | 75 | 93 | 1.7 | 4.3 | 0.00 | 0.10 | 0.00 | 93 | 1015.3 |
| 20260903081704 | 75 | 106 | 1.7 | 2.6 | 0.00 | 0.10 | 0.00 | 93 | 1015.3 |
| 20260903081205 | 75 | 93 | 2.6 | 4.3 | 0.00 | 0.10 | 0.00 | 93 | 1015.3 |
| 20260903080705 | 75 | 43 | 2.6 | 4.3 | 0.00 | 0.10 | 0.00 | 93 | 1015.3 |
| 20260903075705 | 76 | 75 | 2.6 | 2.6 | 0.00 | 0.10 | 0.00 | 94 | 1015.1 |
| 20260903075204 | 76 | 122 | 0.9 | 2.6 | 0.00 | 0.10 | 0.00 | 94 | 1015.1 |
| 20260903074704 | 76 | 109 | 0.9 | 2.6 | 0.00 | 0.10 | 0.00 | 94 | 1015.1 |
| 20260903074205 | 75 | 150 | 1.7 | 2.6 | 0.00 | 0.10 | 0.00 | 94 | 1015.0 |
| 20260903073705 | 75 | 118 | 1.7 | 2.6 | 0.00 | 0.10 | 0.00 | 94 | 1015.0 |
| 20260903073205 | 75 | 144 | 0.9 | 2.6 | 0.00 | 0.10 | 0.00 | 94 | 1015.0 |
| 20260903072704 | 75 | 155 | 1.7 | 2.6 | 0.00 | 0.10 | 0.00 | 94 | 1014.9 |
| 20260903072204 | 75 | 140 | 0.9 | 2.6 | 0.00 | 0.10 | 0.00 | 94 | 1014.8 |
| 20260903071705 | 75 | 145 | 1.7 | 2.6 | 0.00 | 0.10 | 0.00 | 94 | 1014.8 |
| 20260903070205 | 75 | 136 | 1.7 | 2.6 | 0.00 | 0.10 | 0.00 | 94 | 1014.8 |
| 20260903065705 | 75 | 137 | 1.7 | 6.1 | 0.00 | 0.10 | 0.00 | 94 | 1014.8 |
| 20260903065205 | 75 | 109 | 2.6 | 6.1 | 0.00 | 0.10 | 0.00 | 94 | 1014.8 |
| 20260903064705 | 75 | 113 | 0.9 | 2.6 | 0.00 | 0.10 | 0.00 | 94 | 1014.9 |
| 20260903063705 | 75 | 166 | 2.6 | 6.1 | 0.00 | 0.10 | 0.00 | 93 | 1014.7 |
| 20260903062705 | 75 | 182 | 2.6 | 5.2 | 0.00 | 0.10 | 0.00 | 94 | 1014.7 |
| 20260903062204 | 75 | 139 | 2.6 | 5.2 | 0.00 | 0.10 | 0.00 | 94 | 1014.7 |
| 20260903061705 | 75 | 181 | 2.6 | 5.2 | 0.00 | 0.10 | 0.00 | 94 | 1014.7 |
| 20260903060704 | 75 | 121 | 1.7 | 2.6 | 0.00 | 0.10 | 0.00 | 94 | 1015.0 |
| 20260903060204 | 75 | 149 | 1.7 | 4.3 | 0.00 | 0.10 | 0.00 | 94 | 1015.0 |
| 20260903055705 | 75 | 112 | 2.6 | 5.2 | 0.00 | 0.10 | 0.00 | 94 | 1015.0 |
| 20260903055204 | 75 | 135 | 1.7 | 6.1 | 0.00 | 0.10 | 0.00 | 94 | 1015.1 |
| 20260903054705 | 75 | 149 | 1.7 | 4.3 | 0.00 | 0.10 | 0.00 | 94 | 1015.1 |
| 20260903053704 | 75 | 90 | 1.7 | 5.2 | 0.00 | 0.10 | 0.00 | 94 | 1015.2 |
| 20260903053204 | 75 | 123 | 3.5 | 6.1 | 0.00 | 0.10 | 0.00 | 94 | 1015.1 |
| 20260903052704 | 75 | 147 | 1.7 | 2.6 | 0.00 | 0.10 | 0.00 | 94 | 1015.1 |
| 20260903052205 | 75 | 102 | 0.9 | 2.6 | 0.00 | 0.10 | 0.00 | 94 | 1015.2 |
| 20260903051704 | 74 | 135 | 1.7 | 4.3 | 0.00 | 0.10 | 0.00 | 94 | 1015.2 |
| 20260903051205 | 75 | 142 | 1.7 | 2.6 | 0.00 | 0.10 | 0.00 | 94 | 1015.0 |
| 20260903050704 | 75 | 88 | 1.7 | 2.6 | 0.00 | 0.10 | 0.00 | 94 | 1015.1 |
| 20260903050204 | 74 | 111 | 1.7 | 2.6 | 0.00 | 0.10 | 0.00 | 94 | 1015.1 |
| 20260903045705 | 74 | 95 | 2.6 | 2.6 | 0.00 | 0.10 | 0.00 | 94 | 1015.4 |
| 20260903045204 | 74 | 97 | 2.6 | 2.6 | 0.00 | 0.10 | 0.00 | 93 | 1015.4 |
| 20260903044704 | 74 | 74 | 1.7 | 2.6 | 0.00 | 0.10 | 0.00 | 93 | 1015.7 |
| 20260903044205 | 74 | 90 | 1.7 | 2.6 | 0.00 | 0.10 | 0.00 | 93 | 1015.7 |
| 20260903043705 | 74 | 48 | 0.9 | 1.7 | 0.00 | 0.10 | 0.00 | 93 | 1015.7 |
| 20260903043204 | 74 | 16 | 1.7 | 2.6 | 0.00 | 0.10 | 0.00 | 93 | 1015.7 |
| 20260903042705 | 74 | 67 | 0.9 | 2.6 | 0.00 | 0.10 | 0.00 | 93 | 1015.8 |
| 20260903042204 | 74 | 90 | 1.7 | 2.6 | 0.00 | 0.10 | 0.00 | 93 | 1015.5 |
| 20260903041704 | 74 | 44 | 0.9 | 2.6 | 0.00 | 0.10 | 0.00 | 93 | 1015.5 |
| 20260903040705 | 74 | 109 | 0.0 | 1.7 | 0.00 | 0.10 | 0.00 | 94 | 1015.3 |
| 20260903040205 | 74 | 113 | 0.9 | 2.6 | 0.00 | 0.10 | 0.00 | 94 | 1015.2 |
| 20260903035204 | 73 | 99 | 1.7 | 2.6 | 0.00 | 0.10 | 0.10 | 93 | 1015.3 |
| 20260903034704 | 73 | 137 | 0.9 | 1.7 | 0.00 | 0.10 | 0.10 | 93 | 1015.6 |
| 20260903034205 | 73 | 91 | 0.9 | 1.7 | 0.00 | 0.10 | 0.10 | 93 | 1015.5 |
| 20260903033204 | 73 | 78 | 1.7 | 2.6 | 0.00 | 0.10 | 0.10 | 93 | 1015.7 |
| 20260903032204 | 73 | 111 | 0.0 | 1.7 | 0.00 | 0.10 | 0.10 | 92 | 1015.7 |
| 20260903031705 | 73 | 111 | 0.9 | 1.7 | 0.00 | 0.10 | 0.10 | 92 | 1015.6 |
| 20260903031204 | 73 | 23 | 0.9 | 1.7 | 0.00 | 0.10 | 0.10 | 92 | 1016.0 |
| 20260903030705 | 73 | 79 | 0.9 | 1.7 | 0.00 | 0.10 | 0.10 | 92 | 1015.9 |
| 20260903030204 | 73 | 79 | 0.0 | 1.7 | 0.00 | 0.10 | 0.10 | 92 | 1016.0 |
| 20260903025704 | 73 | 78 | 1.7 | 2.6 | 0.00 | 0.10 | 0.10 | 92 | 1015.8 |
| 20260903025204 | 73 | 84 | 1.7 | 2.6 | 0.00 | 0.10 | 0.10 | 92 | 1015.8 |
| 20260903024705 | 73 | 48 | 0.0 | 1.7 | 0.00 | 0.10 | 0.10 | 92 | 1015.8 |
| 20260903023204 | 73 | 122 | 1.7 | 2.6 | 0.00 | 0.10 | 0.10 | 93 | 1015.7 |
| 20260903022705 | 73 | 126 | 2.6 | 2.6 | 0.00 | 0.10 | 0.10 | 92 | 1015.7 |
| 20260903022205 | 73 | 108 | 0.9 | 2.6 | 0.00 | 0.10 | 0.10 | 91 | 1015.8 |
| 20260903021704 | 73 | 5 | 0.9 | 2.6 | 0.00 | 0.10 | 0.10 | 91 | 1015.9 |
| 20260903021205 | 73 | 90 | 0.0 | 1.7 | 0.00 | 0.10 | 0.10 | 91 | 1015.8 |
| 20260903020705 | 73 | 102 | 0.9 | 2.6 | 0.00 | 0.10 | 0.10 | 91 | 1015.9 |
| 20260903020206 | 73 | 15 | 0.9 | 2.6 | 0.00 | 0.10 | 0.10 | 92 | 1015.7 |
| 20260903015704 | 73 | 114 | 0.9 | 1.7 | 0.00 | 0.10 | 0.10 | 92 | 1015.8 |
| 20260903014704 | 73 | 119 | 0.9 | 1.7 | 0.00 | 0.10 | 0.10 | 93 | 1015.5 |
| 20260903014204 | 73 | 119 | 0.9 | 2.6 | 0.00 | 0.10 | 0.10 | 93 | 1015.4 |
| 20260903013704 | 73 | 114 | 0.9 | 1.7 | 0.00 | 0.10 | 0.10 | 92 | 1015.6 |
| 20260903012704 | 73 | 85 | 0.0 | 0.0 | 0.00 | 0.10 | 0.10 | 91 | 1016.0 |
| 20260903011705 | 73 | 85 | 0.0 | 0.0 | 0.00 | 0.10 | 0.10 | 91 | 1016.1 |
| 20260903010704 | 73 | 65 | 1.7 | 2.6 | 0.00 | 0.10 | 0.10 | 91 | 1016.0 |
| 20260903010205 | 74 | 69 | 1.7 | 2.6 | 0.00 | 0.10 | 0.10 | 92 | 1015.9 |
| 20260903005704 | 74 | 84 | 1.7 | 2.6 | 0.00 | 0.10 | 0.10 | 92 | 1015.7 |
| 20260903005204 | 74 | 83 | 1.7 | 2.6 | 0.00 | 0.10 | 0.10 | 92 | 1015.7 |
| 20260903004705 | 73 | 97 | 1.7 | 2.6 | 0.00 | 0.10 | 0.10 | 92 | 1015.7 |
| 20260903004204 | 73 | 92 | 1.7 | 2.6 | 0.00 | 0.10 | 0.10 | 91 | 1015.7 |
| 20260903003704 | 73 | 96 | 1.7 | 2.6 | 0.00 | 0.10 | 0.10 | 91 | 1015.6 |
| 20260903003205 | 73 | 72 | 1.7 | 4.3 | 0.00 | 0.10 | 0.10 | 90 | 1015.7 |
| 20260903002704 | 73 | 64 | 2.6 | 2.6 | 0.00 | 0.10 | 0.10 | 90 | 1015.6 |
| 20260903002204 | 73 | 74 | 1.7 | 2.6 | 0.00 | 0.10 | 0.10 | 90 | 1015.6 |
| 20260903000704 | 74 | 85 | 1.7 | 2.6 | 0.00 | 0.10 | 0.10 | 90 | 1015.6 |
| 20260902235704 | 74 | 85 | 1.7 | 2.6 | 0.00 | 0.10 | 0.10 | 90 | 1015.4 |
| 20260902235204 | 74 | 22 | 0.9 | 2.6 | 0.00 | 0.10 | 0.10 | 90 | 1015.5 |
| 20260902234204 | 74 | 66 | 0.9 | 1.7 | 0.00 | 0.10 | 0.10 | 90 | 1015.5 |
| 20260902233704 | 74 | 87 | 1.7 | 2.6 | 0.00 | 0.10 | 0.10 | 90 | 1015.6 |
| 20260902233205 | 75 | 87 | 0.9 | 2.6 | 0.00 | 0.10 | 0.10 | 90 | 1015.7 |
| 20260902232705 | 75 | 87 | 0.9 | 1.7 | 0.00 | 0.10 | 0.10 | 90 | 1015.7 |
| 20260902231704 | 75 | 87 | 0.9 | 1.7 | 0.00 | 0.10 | 0.10 | 90 | 1015.8 |
| 20260902231204 | 75 | 87 | 0.9 | 1.7 | 0.00 | 0.10 | 0.10 | 90 | 1015.8 |
| 20260902230704 | 75 | 60 | 0.0 | 1.7 | 0.00 | 0.10 | 0.10 | 90 | 1015.8 |
| 20260902230204 | 75 | 34 | 0.0 | 0.9 | 0.00 | 0.10 | 0.10 | 90 | 1015.8 |
| 20260902225705 | 75 | 34 | 0.0 | 1.7 | 0.00 | 0.10 | 0.10 | 90 | 1015.6 |
| 20260902225204 | 75 | 25 | 0.9 | 1.7 | 0.00 | 0.10 | 0.10 | 90 | 1015.6 |
| 20260902224704 | 75 | 101 | 0.9 | 1.7 | 0.00 | 0.10 | 0.10 | 90 | 1015.5 |
| 20260902224204 | 75 | 101 | 0.9 | 1.7 | 0.00 | 0.10 | 0.10 | 90 | 1015.5 |
| 20260902223704 | 75 | 101 | 0.9 | 1.7 | 0.00 | 0.10 | 0.10 | 90 | 1015.4 |
| 20260902223205 | 75 | 101 | 1.7 | 2.6 | 0.00 | 0.10 | 0.10 | 90 | 1015.5 |
| 20260902222704 | 75 | 83 | 2.6 | 2.6 | 0.00 | 0.10 | 0.10 | 90 | 1015.5 |
| 20260902222205 | 75 | 80 | 1.7 | 2.6 | 0.00 | 0.10 | 0.10 | 90 | 1015.6 |
| 20260902221704 | 75 | 83 | 1.7 | 2.6 | 0.00 | 0.10 | 0.10 | 90 | 1015.8 |
| 20260902221204 | 75 | 66 | 1.7 | 2.6 | 0.00 | 0.10 | 0.10 | 90 | 1016.0 |
| 20260902220704 | 74 | 38 | 1.7 | 2.6 | 0.00 | 0.10 | 0.10 | 89 | 1016.1 |
| 20260902220204 | 74 | 54 | 1.7 | 2.6 | 0.00 | 0.10 | 0.10 | 89 | 1016.2 |
| 20260902215705 | 75 | 304 | 0.9 | 2.6 | 0.00 | 0.10 | 0.10 | 89 | 1016.3 |
| 20260902214704 | 75 | 339 | 0.0 | 0.9 | 0.00 | 0.10 | 0.10 | 88 | 1016.1 |
| 20260902214204 | 75 | 339 | 0.0 | 0.9 | 0.00 | 0.10 | 0.10 | 88 | 1016.0 |
| 20260902213704 | 75 | 339 | 0.0 | 0.9 | 0.00 | 0.10 | 0.10 | 88 | 1016.1 |
| 20260902213205 | 75 | 339 | 0.9 | 1.7 | 0.00 | 0.10 | 0.10 | 88 | 1016.1 |
| 20260902212704 | 75 | 343 | 0.9 | 1.7 | 0.00 | 0.10 | 0.10 | 88 | 1016.0 |
| 20260902212204 | 75 | 276 | 0.9 | 2.6 | 0.00 | 0.10 | 0.10 | 88 | 1015.9 |
| 20260902211704 | 75 | 258 | 2.6 | 5.2 | 0.00 | 0.10 | 0.10 | 87 | 1015.9 |
| 20260902211206 | 75 | 220 | 3.5 | 7.0 | 0.00 | 0.10 | 0.10 | 87 | 1016.0 |
| 20260902210704 | 75 | 216 | 3.5 | 6.1 | 0.00 | 0.10 | 0.10 | 88 | 1015.9 |
| 20260902210204 | 75 | 190 | 4.3 | 6.1 | 0.00 | 0.10 | 0.10 | 87 | 1016.1 |
| 20260902205704 | 76 | 204 | 4.3 | 7.8 | 0.00 | 0.10 | 0.10 | 88 | 1016.0 |
| 20260902205204 | 75 | 218 | 7.0 | 8.7 | 0.00 | 0.10 | 0.10 | 87 | 1016.1 |
| 20260902204704 | 76 | 197 | 5.2 | 7.8 | 0.00 | 0.10 | 0.10 | 87 | 1016.0 |
| 20260902204205 | 76 | 178 | 4.3 | 7.8 | 0.00 | 0.10 | 0.10 | 87 | 1016.0 |
| 20260902203705 | 76 | 195 | 2.6 | 5.2 | 0.00 | 0.10 | 0.10 | 87 | 1016.0 |
| 20260902203204 | 76 | 192 | 2.6 | 5.2 | 0.00 | 0.10 | 0.10 | 87 | 1016.1 |
| 20260902202705 | 76 | 217 | 4.3 | 6.1 | 0.00 | 0.10 | 0.10 | 89 | 1016.2 |
| 20260902202204 | 76 | 199 | 5.2 | 7.8 | 0.00 | 0.10 | 0.10 | 89 | 1016.3 |
| 20260902201704 | 76 | 201 | 6.1 | 7.8 | 0.00 | 0.10 | 0.10 | 89 | 1016.4 |
| 20260902201204 | 75 | 211 | 4.3 | 7.0 | 0.00 | 0.10 | 0.10 | 89 | 1016.3 |
| 20260902200704 | 75 | 199 | 3.5 | 5.2 | 0.00 | 0.10 | 0.10 | 89 | 1016.4 |
| 20260902200205 | 75 | 221 | 1.7 | 2.6 | 0.01 | 0.10 | 0.10 | 90 | 1016.5 |
| 20260902195704 | 75 | 239 | 0.0 | 1.7 | 0.01 | 0.10 | 0.10 | 89 | 1016.5 |
| 20260902194204 | 75 | 163 | 1.7 | 2.6 | 0.01 | 0.10 | 0.10 | 88 | 1015.9 |
| 20260902193704 | 75 | 141 | 2.6 | 7.0 | 0.01 | 0.10 | 0.10 | 87 | 1015.9 |
| 20260902192204 | 76 | 129 | 0.9 | 4.3 | 0.01 | 0.10 | 0.10 | 88 | 1015.8 |
| 20260902191704 | 76 | 236 | 1.7 | 2.6 | 0.01 | 0.10 | 0.10 | 87 | 1016.0 |
| 20260902191204 | 76 | 108 | 1.7 | 4.3 | 0.02 | 0.10 | 0.10 | 89 | 1016.3 |
| 20260902190704 | 76 | 134 | 1.7 | 7.0 | 0.03 | 0.10 | 0.10 | 89 | 1016.2 |
| 20260902190204 | 76 | 129 | 4.3 | 8.7 | 0.06 | 0.09 | 0.09 | 89 | 1016.3 |
| 20260902185207 | 76 | 102 | 4.3 | 7.0 | 0.09 | 0.09 | 0.09 | 87 | 1017.5 |
| 20260902184704 | 76 | 66 | 3.5 | 10.4 | 0.09 | 0.09 | 0.09 | 87 | 1017.6 |
| 20260902184204 | 76 | 88 | 6.1 | 10.4 | 0.09 | 0.09 | 0.09 | 87 | 1017.2 |
| 20260902183704 | 76 | 84 | 6.1 | 10.4 | 0.09 | 0.09 | 0.09 | 88 | 1016.9 |
| 20260902183204 | 76 | 40 | 2.6 | 5.2 | 0.09 | 0.09 | 0.09 | 86 | 1017.2 |
| 20260902182704 | 76 | 17 | 2.6 | 4.3 | 0.09 | 0.09 | 0.09 | 86 | 1017.1 |
| 20260902181704 | 77 | 293 | 3.5 | 6.1 | 0.09 | 0.09 | 0.09 | 83 | 1017.7 |
| 20260902180704 | 79 | 323 | 4.3 | 11.3 | 0.07 | 0.07 | 0.07 | 78 | 1018.5 |
| 20260902180204 | 81 | 344 | 8.7 | 25.2 | 0.03 | 0.03 | 0.03 | 71 | 1019.0 |
| 20260902175704 | 84 | 341 | 10.4 | 19.1 | 0.00 | 0.00 | 0.00 | 68 | 1018.8 |
| 20260902175205 | 86 | 1 | 5.2 | 10.4 | 0.00 | 0.00 | 0.00 | 72 | 1018.5 |
| 20260902174704 | 87 | 341 | 1.7 | 5.2 | 0.00 | 0.00 | 0.00 | 72 | 1017.8 |
| 20260902174204 | 87 | 308 | 0.0 | 1.7 | 0.00 | 0.00 | 0.00 | 74 | 1017.5 |
| 20260902173704 | 87 | 65 | 2.6 | 2.6 | 0.00 | 0.00 | 0.00 | 72 | 1017.5 |
| 20260902173204 | 87 | 27 | 4.3 | 6.1 | 0.00 | 0.00 | 0.00 | 73 | 1017.2 |
| 20260902172704 | 87 | 71 | 0.9 | 2.6 | 0.00 | 0.00 | 0.00 | 73 | 1017.2 |
| 20260902172204 | 87 | 100 | 1.7 | 4.3 | 0.00 | 0.00 | 0.00 | 73 | 1017.2 |
| 20260902170704 | 87 | 56 | 2.6 | 4.3 | 0.00 | 0.00 | 0.00 | 72 | 1016.9 |
| 20260902170205 | 87 | 59 | 1.7 | 4.3 | 0.00 | 0.00 | 0.00 | 71 | 1016.9 |
| 20260902165704 | 87 | 237 | 1.7 | 7.0 | 0.00 | 0.00 | 0.00 | 72 | 1016.9 |
| 20260902165204 | 87 | 27 | 3.5 | 5.2 | 0.00 | 0.00 | 0.00 | 71 | 1016.8 |
| 20260902164704 | 87 | 152 | 2.6 | 5.2 | 0.00 | 0.00 | 0.00 | 75 | 1016.7 |
| 20260902164204 | 87 | 116 | 3.5 | 7.0 | 0.00 | 0.00 | 0.00 | 75 | 1016.7 |
| 20260902163704 | 86 | 55 | 2.6 | 7.0 | 0.00 | 0.00 | 0.00 | 72 | 1016.7 |
| 20260902163204 | 86 | 105 | 2.6 | 7.0 | 0.00 | 0.00 | 0.00 | 74 | 1016.7 |
| 20260902162705 | 86 | 139 | 2.6 | 6.1 | 0.00 | 0.00 | 0.00 | 74 | 1016.7 |
| 20260902161704 | 86 | 72 | 6.1 | 10.4 | 0.00 | 0.00 | 0.00 | 74 | 1016.7 |
| 20260902160704 | 86 | 103 | 2.6 | 8.7 | 0.00 | 0.00 | 0.00 | 74 | 1016.7 |
| 20260902160204 | 86 | 62 | 5.2 | 8.7 | 0.00 | 0.00 | 0.00 | 74 | 1016.8 |
| 20260902155704 | 85 | 2 | 0.9 | 4.3 | 0.00 | 0.00 | 0.00 | 74 | 1016.9 |
| 20260902155204 | 85 | 11 | 4.3 | 10.4 | 0.00 | 0.00 | 0.00 | 74 | 1017.0 |
| 20260902154705 | 85 | 80 | 5.2 | 10.4 | 0.00 | 0.00 | 0.00 | 76 | 1016.9 |
| 20260902154204 | 85 | 26 | 4.3 | 10.4 | 0.00 | 0.00 | 0.00 | 73 | 1016.9 |
| 20260902153704 | 85 | 102 | 2.6 | 6.1 | 0.00 | 0.00 | 0.00 | 75 | 1016.8 |
| 20260902153205 | 85 | 106 | 5.2 | 7.8 | 0.00 | 0.00 | 0.00 | 76 | 1016.9 |
| 20260902152204 | 84 | 39 | 3.5 | 10.4 | 0.00 | 0.00 | 0.00 | 76 | 1017.0 |
| 20260902151704 | 84 | 49 | 6.1 | 10.4 | 0.00 | 0.00 | 0.00 | 77 | 1016.9 |
| 20260902151204 | 84 | 110 | 4.3 | 8.7 | 0.00 | 0.00 | 0.00 | 77 | 1016.9 |
| 20260902150205 | 83 | 101 | 4.3 | 8.7 | 0.00 | 0.00 | 0.00 | 78 | 1016.9 |
| 20260902145704 | 83 | 92 | 7.8 | 10.4 | 0.00 | 0.00 | 0.00 | 77 | 1016.9 |
| 20260902145204 | 83 | 81 | 7.8 | 10.4 | 0.00 | 0.00 | 0.00 | 78 | 1016.8 |
| 20260902144704 | 83 | 76 | 5.2 | 11.3 | 0.00 | 0.00 | 0.00 | 78 | 1016.7 |
| 20260902144204 | 82 | 109 | 4.3 | 10.4 | 0.00 | 0.00 | 0.00 | 79 | 1016.7 |
| 20260902143704 | 82 | 123 | 6.1 | 10.4 | 0.00 | 0.00 | 0.00 | 80 | 1016.6 |
| 20260902143205 | 82 | 71 | 7.8 | 11.3 | 0.00 | 0.00 | 0.00 | 80 | 1016.7 |
| 20260902142705 | 82 | 86 | 6.1 | 10.4 | 0.00 | 0.00 | 0.00 | 79 | 1016.7 |
| 20260902141204 | 81 | 55 | 5.2 | 7.8 | 0.00 | 0.00 | 0.00 | 80 | 1016.9 |
| 20260902140704 | 81 | 94 | 5.2 | 8.7 | 0.00 | 0.00 | 0.00 | 80 | 1016.9 |
| 20260902140204 | 81 | 87 | 7.0 | 10.4 | 0.00 | 0.00 | 0.00 | 82 | 1017.0 |
| 20260902135704 | 80 | 80 | 6.1 | 7.8 | 0.00 | 0.00 | 0.00 | 80 | 1017.0 |
| 20260902135204 | 80 | 46 | 2.6 | 7.8 | 0.00 | 0.00 | 0.00 | 82 | 1017.0 |
| 20260902134704 | 80 | 80 | 5.2 | 10.4 | 0.00 | 0.00 | 0.00 | 84 | 1017.0 |
| 20260902134204 | 79 | 58 | 7.0 | 10.4 | 0.00 | 0.00 | 0.00 | 84 | 1016.8 |
| 20260902133704 | 79 | 51 | 5.2 | 7.8 | 0.00 | 0.00 | 0.00 | 83 | 1016.7 |
| 20260902132704 | 79 | 74 | 6.1 | 10.4 | 0.00 | 0.00 | 0.00 | 83 | 1016.5 |
| 20260902131704 | 79 | 67 | 7.0 | 11.3 | 0.00 | 0.00 | 0.00 | 83 | 1016.4 |
| 20260902131204 | 79 | 87 | 7.8 | 13.0 | 0.00 | 0.00 | 0.00 | 85 | 1016.4 |
| 20260902130704 | 79 | 83 | 8.7 | 11.3 | 0.00 | 0.00 | 0.00 | 83 | 1016.4 |
| 20260902130204 | 79 | 85 | 8.7 | 12.2 | 0.00 | 0.00 | 0.00 | 84 | 1016.4 |
| 20260902125704 | 78 | 73 | 10.4 | 12.2 | 0.00 | 0.00 | 0.00 | 85 | 1016.4 |
| 20260902124704 | 78 | 57 | 7.8 | 10.4 | 0.00 | 0.00 | 0.00 | 85 | 1016.4 |
| 20260902124204 | 78 | 73 | 7.8 | 11.3 | 0.00 | 0.00 | 0.00 | 86 | 1016.3 |
| 20260902123704 | 77 | 73 | 4.3 | 10.4 | 0.00 | 0.00 | 0.00 | 85 | 1016.3 |
| 20260902123204 | 77 | 72 | 6.1 | 10.4 | 0.00 | 0.00 | 0.00 | 85 | 1016.3 |
| 20260902122704 | 77 | 73 | 7.0 | 11.3 | 0.00 | 0.00 | 0.00 | 85 | 1016.3 |
| 20260902122204 | 77 | 58 | 4.3 | 8.7 | 0.00 | 0.00 | 0.00 | 87 | 1016.3 |
| 20260902121704 | 76 | 68 | 4.3 | 7.0 | 0.00 | 0.00 | 0.00 | 87 | 1016.3 |
| 20260902121204 | 76 | 58 | 5.2 | 8.7 | 0.00 | 0.00 | 0.00 | 87 | 1016.3 |
| 20260902120705 | 76 | 72 | 5.2 | 10.4 | 0.00 | 0.00 | 0.00 | 87 | 1016.3 |
| 20260902120204 | 76 | 58 | 7.8 | 10.4 | 0.00 | 0.00 | 0.00 | 88 | 1016.3 |
| 20260902115203 | 76 | 65 | 7.0 | 10.4 | 0.00 | 0.00 | 0.00 | 88 | 1016.4 |
| 20260902114704 | 75 | 58 | 7.8 | 8.7 | 0.00 | 0.00 | 0.00 | 89 | 1016.3 |
| 20260902114204 | 75 | 72 | 7.0 | 10.4 | 0.00 | 0.00 | 0.00 | 91 | 1016.2 |
| 20260902113704 | 75 | 83 | 5.2 | 7.8 | 0.00 | 0.00 | 0.00 | 91 | 1016.2 |
| 20260902112704 | 74 | 68 | 6.1 | 8.7 | 0.00 | 0.00 | 0.00 | 92 | 1016.2 |
| 20260902112204 | 74 | 67 | 4.3 | 8.7 | 0.00 | 0.00 | 0.00 | 92 | 1016.1 |
| 20260902111704 | 74 | 71 | 5.2 | 7.8 | 0.00 | 0.00 | 0.00 | 92 | 1016.0 |
| 20260902111204 | 74 | 62 | 3.5 | 7.0 | 0.00 | 0.00 | 0.00 | 92 | 1016.0 |
| 20260902110704 | 74 | 50 | 1.7 | 4.3 | 0.00 | 0.00 | 0.00 | 92 | 1016.0 |
| 20260902105704 | 73 | 58 | 0.9 | 2.6 | 0.00 | 0.00 | 0.00 | 91 | 1015.8 |